World > North America > United States > Texas > Pursley  

Pursley, TX Hourly Weather Updates

Feedback E-mail the Weather

Quick Clicks

Pursley, TX Weather Maps

°F °C°F °C
Pursley Weather Map
UTC Time: 6/21/2024, 05:57
Your Time:

Pursley, TX Regional Weather

Expires:202406210600;;388697
ASUS44 KFWD 210515
RWRTX 
NORTH TEXAS HOURLY WEATHER ROUNDUP
NATIONAL WEATHER SERVICE FORT WORTH TX
1200 AM CDT FRI JUN 21 2024

NOTE: "FAIR" INDICATES FEW OR NO CLOUDS BELOW 12,000 FEET WITH NO
SIGNIFICANT WEATHER AND/OR OBSTRUCTIONS TO VISIBILITY.


TXZ143>147-156>162-174-175-210600-
CENTRAL TEXAS
  
CITY           SKY/WX    TMP DP  RH WIND       PRES   REMARKS
WACO           FAIR      78  71  79 CALM      30.13R                  
WACO-MCGREGOR  FAIR      78  73  84 S3        30.15R                  
HILLSBORO      FAIR      78  70  76 E3        30.14S                  
CORSICANA      FAIR      81  72  74 E6        30.14S                  
MEXIA          FAIR      78  72  80 MISG      30.13S                  
HEARNE         MOCLDY    79  74  85 CALM      30.13S                  
CAMERON        FAIR      77  74  89 CALM      30.13R                  
TEMPLE         MOCLDY    79  73  82 SE3       30.15R                  
KILLEEN        FAIR      82  77  86 E6        30.15S                  
KILLEEN-SKYLRK FAIR      78  73  84 SE3       30.15R                  
FORT CAVAZOS   FAIR      79  72  79 SE5       30.13S                  
GATESVILLE     FAIR      77  75  94 CALM      30.16R                  
HAMILTON       FAIR      76  72  87 CALM      30.17S                  
$$


SKY/WX - Weather  TMP - Temperature  DP - Dew Point  RH - Humidity
WIND - Wind Direction/Speed PRES - Barometric Pressure VSB - Visibility
WCI - Wind Chill Index E13G22 Wind - East Wind 13 mph/Gusts of 22 mph

Trending Headlines

Trending Entertainment Headlines

Pursley Radar Loop

Use the map search tool if you want to place a location marker on the radar map...

Pursley Quick Facts

National Two Day Weather Forecast


E-mail the Pursley Weather Forecast

Voice your opinion or tell us about page issues...